"Pseudo-MPEC" for P21ZSxr

Created 2024 Oct 11 19:22:15 UT using Find_Orb

Click here for an explanation of pseudo-MPECs

 
 Astrometry: 
     P21ZSxr* C2024 10 01.42482800 36 43.170+05 05 22.23   ~A1LM 22.15wXNEOCPF52
     P21ZSxr  C2024 10 01.43622200 36 44.669+05 05 13.75   ~A1LM 22.11wXNEOCPF52
     P21ZSxr  C2024 10 01.44763200 36 46.180+05 05 04.94   ~A1LM 22.14wXNEOCPF52
     P21ZSxr  C2024 10 01.51821200 36 55.683+05 04 09.96   ~A1MM 22.06GVNEOCPF51
     P21ZSxr  C2024 10 01.51885700 36 55.772+05 04 09.51   ~A1MM 22.16GVNEOCPF51

Station data:
(F51) Pan-STARRS 1, Haleakala  (N20.707234 W156.255910)  US/Hawaii.
   Observers J. Bulger, T. Lowe, A. Schultz, M. Willman. Measurers K.
   Chambers, S. Chastel, T. de Boer, L. Denneau, J. Fairlamb, H. Flewelling,
   M. Huber, C.-C. Lin, E. Magnier, Y. Ramanjooloo, R. Wainscoat, R. Weryk.
   1.8-m Ritchey-Chrétien + CCD.
(F52) Pan-STARRS 2, Haleakala  (N20.707382 W156.255910)  US/Hawaii.
   Observers J. Bulger, T. Dukes, T. Lowe, A. Schultz, M. Willman. Measurers
   K. Chambers, S. Chastel, T. de Boer, L. Denneau, J. Fairlamb, H.
   Flewelling, M. Huber, C.-C. Lin, E. Magnier, Y. Ramanjooloo, R. Wainscoat,
   R. Weryk. 1.8-m Ritchey-Chrétien + CCD.

Orbital elements:  P21ZSxr
   Perihelion 2024 Aug 19.50211 +/- 39.8 TT = 12:03:02 (JD 2460542.00211)
Epoch 2024 Oct  1.0 TT = JDT 2460584.5   Earth MOID: 0.0434   Ma: 0.0394
M  12.60205670 +/- 15               (J2000 ecliptic)             AutoNEOCP
n   0.29653368 +/- 0.214            Peri.  131.08691 +/- 51
a   2.22716995 +/- 1.07             Node   190.97060 +/- 21
e   0.5390904 +/- 0.208             Incl.    3.38973 +/- 1.8
P   3.32376                H 25.70  G  0.15   U 11.7  SR
q 1.02652395 +/- 0.181    Q 3.42781596 +/- 25.4
From 5 observations 2024 Oct. 1 (2.3 hr); mean residual 0".14
Residuals in arcseconds: 
241001 F52  .26+  .18-    241001 F52  .25-  .10+    241001 F51  .05+  .01+    
241001 F52  .08-  .11+    241001 F51  .03+  .05-    

Ephemerides (geocentric):
Date (UTC) HH   RA             Dec           delta  r     elong  mag " sig PA
---- --------  ------------   ------------  ------ ------ -----  --- --------
2024 10 11 19  00 55 57.170   +03 30 27.24  .21501 1.2124 175.1 23.2  39d  84
2024 10 11 20  00 56 00.461   +03 30 12.12  .21529 1.2127 175.0 23.2  39d  84
2024 10 11 21  00 56 03.745   +03 29 57.06  .21556 1.2130 175.0 23.2  39d  84
2024 10 11 22  00 56 07.021   +03 29 42.05  .21584 1.2132 175.0 23.2  39d  85
2024 10 11 23  00 56 10.290   +03 29 27.09  .21611 1.2135 174.9 23.2  39d  85
2024 10 12 00  00 56 13.551   +03 29 12.19  .21639 1.2137 174.9 23.2  39d  85
2024 10 12 01  00 56 16.805   +03 28 57.33  .21667 1.2140 174.9 23.2  39d  85
2024 10 12 02  00 56 20.052   +03 28 42.54  .21694 1.2142 174.8 23.2  40d  85
2024 10 12 03  00 56 23.291   +03 28 27.79  .21722 1.2145 174.8 23.2  40d  85
2024 10 12 04  00 56 26.523   +03 28 13.10  .21750 1.2147 174.8 23.2  40d  85
2024 10 12 05  00 56 29.748   +03 27 58.46  .21777 1.2150 174.8 23.2  40d  85
2024 10 12 06  00 56 32.966   +03 27 43.87  .21805 1.2153 174.7 23.2  40d  85
2024 10 12 07  00 56 36.176   +03 27 29.34  .21833 1.2155 174.7 23.2  40d  85
2024 10 12 08  00 56 39.379   +03 27 14.86  .21861 1.2158 174.7 23.2  40d  85
2024 10 12 09  00 56 42.576   +03 27 00.43  .21888 1.2160 174.6 23.2  40d  85
2024 10 12 10  00 56 45.765   +03 26 46.06  .21916 1.2163 174.6 23.2  40d  85
2024 10 12 11  00 56 48.947   +03 26 31.73  .21944 1.2165 174.6 23.2  40d  85
2024 10 12 12  00 56 52.122   +03 26 17.46  .21972 1.2168 174.5 23.2  40d  85
2024 10 12 13  00 56 55.290   +03 26 03.24  .22000 1.2170 174.5 23.2  41d  85
2024 10 12 14  00 56 58.451   +03 25 49.07  .22028 1.2173 174.5 23.2  41d  85
2024 10 12 15  00 57 01.605   +03 25 34.96  .22055 1.2176 174.4 23.2  41d  85
2024 10 12 16  00 57 04.752   +03 25 20.90  .22083 1.2178 174.4 23.2  41d  85
2024 10 12 17  00 57 07.892   +03 25 06.89  .22111 1.2181 174.4 23.3  41d  85
2024 10 12 18  00 57 11.026   +03 24 52.93  .22139 1.2183 174.3 23.3  41d  85
2024 10 12 19  00 57 14.152   +03 24 39.02  .22167 1.2186 174.3 23.3  41d  85
2024 10 12 20  00 57 17.272   +03 24 25.16  .22195 1.2188 174.3 23.3  41d  85
2024 10 12 21  00 57 20.385   +03 24 11.36  .22223 1.2191 174.3 23.3  41d  84
2024 10 12 22  00 57 23.491   +03 23 57.60  .22251 1.2194 174.2 23.3  41d  84
2024 10 12 23  00 57 26.591   +03 23 43.90  .22279 1.2196 174.2 23.3  42d  84
2024 10 13 00  00 57 29.684   +03 23 30.25  .22307 1.2199 174.2 23.3  42d  84
2024 10 13 01  00 57 32.770   +03 23 16.65  .22335 1.2201 174.1 23.3  42d  84
2024 10 13 02  00 57 35.849   +03 23 03.10  .22363 1.2204 174.1 23.3  42d  84
2024 10 13 03  00 57 38.922   +03 22 49.61  .22391 1.2206 174.1 23.3  42d  84
2024 10 13 04  00 57 41.988   +03 22 36.16  .22419 1.2209 174.0 23.3  42d  84
2024 10 13 05  00 57 45.048   +03 22 22.76  .22448 1.2212 174.0 23.3  42d  84
2024 10 13 06  00 57 48.101   +03 22 09.42  .22476 1.2214 174.0 23.3  42d  84
2024 10 13 07  00 57 51.148   +03 21 56.12  .22504 1.2217 173.9 23.3  42d  84
2024 10 13 08  00 57 54.188   +03 21 42.88  .22532 1.2219 173.9 23.3  42d  84
2024 10 13 09  00 57 57.221   +03 21 29.69  .22560 1.2222 173.9 23.3  43d  84
2024 10 13 10  00 58 00.249   +03 21 16.54  .22589 1.2224 173.8 23.3  43d  84
2024 10 13 11  00 58 03.269   +03 21 03.45  .22617 1.2227 173.8 23.3  43d  84
2024 10 13 12  00 58 06.284   +03 20 50.41  .22645 1.2230 173.8 23.3  43d  84
2024 10 13 13  00 58 09.292   +03 20 37.41  .22673 1.2232 173.7 23.3  43d  84
2024 10 13 14  00 58 12.294   +03 20 24.47  .22702 1.2235 173.7 23.3  43d  84
2024 10 13 15  00 58 15.289   +03 20 11.58  .22730 1.2237 173.7 23.4  43d  84
2024 10 13 16  00 58 18.278   +03 19 58.73  .22758 1.2240 173.7 23.4  43d  84
2024 10 13 17  00 58 21.261   +03 19 45.94  .22787 1.2243 173.6 23.4  43d  84
2024 10 13 18  00 58 24.238   +03 19 33.19  .22815 1.2245 173.6 23.4  44d  84